CAPE
1 1 2 2 2 4 6 1 1 2 3 4 5 2 1 1 0 0 0 0 0 0 0 0 0 0 0 0 0 0 0 0 0 0 0 0 0 0 0 0 0 0 0 619 1229
1 0 1 2 1 1 2 2 3 1 2 1 1 2 3 3 0 0 0 0 0 0 0 0 0 0 0 0 0 0 0 0 0 0 0 0 0 0 0 0 0 0 0 657 881
0 5 4 5 4 6 2 2 5 4 5 7 4 0 0 1 0 0 0 0 0 0 0 0 0 0 0 0 0 0 0 0 0 0 0 0 0 0 0 0 0 0 0 93 179
0 0 1 4 4 5 4 2 6 9 11 10 10 3 0 0 0 0 0 0 0 0 0 0 0 0 0 0 0 0 0 0 0 0 0 0 0 0 0 0 0 0 0 0 0
0 0 0 0 0 0 0 0 1 2 2 5 6 13 8 0 0 0 0 0 0 0 0 0 0 0 0 0 0 0 0 0 0 0 0 0 0 0 0 0 0 0 0 0 0
0 0 0 0 0 0 0 0 0 0 2 4 8 7 13 0 0 0 0 0 0 0 0 0 0 0 0 0 0 0 0 0 0 0 0 0 0 0 0 0 0 0 0 0 0
0 0 0 0 0 0 0 0 0 0 2 5 1 11 16 0 0 0 0 0 0 0 0 0 0 0 0 0 0 0 0 0 0 0 0 0 0 0 0 0 0 0 0 0 0
0 0 2 3 1 0 0 0 0 1 3 1 5 4 1 0 0 0 0 0 0 0 0 0 0 0 0 0 0 0 0 0 0 0 0 0 0 0 0 0 0 0 0 0 0
1 1 0 0 0 0 0 0 0 0 3 8 11 7 0 0 0 0 0 0 0 0 0 0 0 0 0 0 0 0 0 0 0 0 0 0 0 0 0 0 0 0 0 0 0
0 0 0 0 0 0 0 0 0 0 0 0 0 1 0 0 0 0 0 0 0 0 0 0 0 0 0 0 0 0 0 0 0 0 0 0 0 0 0 0 0 0 0 0 0
0 0 0 0 0 0 3 0 0 0 5 0 0 0 0 0 0 0 0 0 0 0 0 0 0 0 0 0 0 0 0 0 0 0 0 0 0 0 0 0 0 0 0 0 0
0 0 0 0 0 0 3 0 0 0 0 0 0 0 0 0 0 0 0 0 0 0 0 0 0 0 0 0 0 0 0 0 0 0 0 0 0 0 0 0 0 0 0 0 0
0 0 0 1 0 0 0 0 0 0 0 0 0 0 0 0 0 0 0 0 0 0 0 0 0 0 0 0 0 0 0 0 0 0 0 0 0 0 0 0 0 0 0 0 0
0 0 0 2 0 0 0 0 0 0 0 0 0 0 0 0 0 0 0 4 0 0 0 0 0 0 0 0 0 0 0 0 0 0 0 2 0 0 0 0 0 0 0 0 0
0 0 0 7 3 0 0 0 0 8 0 0 0 0 0 0 0 0 0 4 0 0 12 0 0 0 0 0 0 0 0 0 0 0 0 0 0 0 0 0 0 0 0 0 0
0 0 0 0 0 0 0 0 0 11 0 0 0 0 1 0 0 1 0 1 10 38 11 0 0 0 0 0 0 0 0 0 0 0 0 0 0 0 0 0 0 0 0 0 0
0 0 0 0 0 0 0 11 18 8 0 0 0 0 0 4 8 21 1 1 1 17 9 8 0 0 0 0 0 0 0 0 0 0 0 0 0 0 0 2 0 0 0 0 0
0 0 0 0 0 0 0 24 0 0 4 0 0 0 0 1 22 13 0 4 1 1 3 0 2 0 0 0 0 0 0 0 0 0 0 0 0 0 0 0 1 0 0 5 0
0 0 0 0 0 0 11 4 0 0 1 11 0 0 0 0 76 4 0 5 0 4 0 4 0 0 0 0 0 0 0 0 0 2 0 0 0 35 16 38 23 1 7 48 73
0 0 0 0 1 25 15 0 0 2 4 0 1 1 0 0 5 10 0 1 1 0 1 11 8 0 0 0 0 0 0 0 0 0 0 1 12 69 33 5 2 8 49 260 217
0 0 0 0 0 2 14 1 0 3 0 5 0 5 1 0 19 0 0 2 38 18 0 14 36 0 0 0 0 0 0 0 0 0 0 0 11 18 21 0 1 36 86 301 291
0 0 0 4 0 4 1 0 1 5 12 15 10 18 4 19 9 9 0 0 1 3 4 9 17 0 0 0 0 0 0 0 4 0 4 0 24 1 5 0 0 0 122 5 0
3 0 7 1 0 0 0 0 4 9 6 4 7 2 7 1 7 3 3 2 0 0 0 26 0 0 0 0 0 0 0 0 0 0 8 32 8 2 8 0 0 0 0 0 2
2 2 0 0 3 5 0 7 1 1 4 8 10 2 0 1 8 19 18 40 15 7 6 0 2 0 0 0 0 0 0 0 0 0 0 25 12 14 5 0 0 0 0 1 1
10 7 15 0 0 0 1 2 3 3 6 0 0 3 3 0 5 0 3 3 5 25 12 8 0 4 0 9 4 6 9 0 1 25 0 28 31 24 7 44 3 0 0 4 0
12 14 17 1 0 0 10 1 13 5 8 12 17 3 2 2 4 3 1 0 1 24 17 2 7 1 0 0 11 13 22 31 110 59 36 0 6 0 0 1 10 1 1 0 0
0 10 7 3 0 0 2 4 2 8 0 0 7 4 6 1 3 1 1 0 2 6 0 2 2 0 7 0 0 0 9 88 56 14 26 3 2 3 0 0 27 5 0 0 0
CIN
-2 -1 0 0 -2 0 -1 0 0 0 0 0 0 0 -1 0 0 0 0 0 0 0 0 0 0 0 0 0 0 0 0 0 0 0 0 0 0 0 0 0 0 0 0 -61 -155
0 0 0 -1 0 -2 0 -1 0 0 0 0 -1 -2 -2 -1 0 0 0 0 0 0 0 0 0 0 0 0 0 0 0 0 0 0 0 0 0 0 0 0 0 0 0 -160 -161
0 0 0 0 0 0 0 0 0 0 -1 -1 -1 -1 0 -3 0 0 0 0 0 0 0 0 0 0 0 0 0 0 0 0 0 0 0 0 0 0 0 0 0 0 0 -115 -164
0 0 0 0 0 0 0 -1 0 0 0 0 -1 -1 -3 0 0 0 0 0 0 0 0 0 0 0 0 0 0 0 0 0 0 0 0 0 0 0 0 0 0 0 0 0 0
0 0 0 0 0 0 0 0 0 0 0 0 0 -1 0 0 0 0 0 0 0 0 0 0 0 0 0 0 0 0 0 0 0 0 0 0 0 0 0 0 0 0 0 0 0
0 0 0 0 0 0 0 0 0 0 0 0 0 0 0 0 0 0 0 0 0 0 0 0 0 0 0 0 0 0 0 0 0 0 0 0 0 0 0 0 0 0 0 0 0
0 0 0 0 0 0 0 0 0 0 0 0 -1 0 0 0 0 0 0 0 0 0 0 0 0 0 0 0 0 0 0 0 0 0 0 0 0 0 0 0 0 0 0 0 0
0 0 0 0 0 0 0 0 0 0 0 0 0 -4 0 0 0 0 0 0 0 0 0 0 0 0 0 0 0 0 0 0 0 0 0 0 0 0 0 0 0 0 0 0 0
0 -1 0 0 0 0 0 0 0 0 0 0 0 0 0 0 0 0 0 0 0 0 0 0 0 0 0 0 0 0 0 0 0 0 0 0 0 0 0 0 0 0 0 0 0
0 0 0 0 0 0 0 0 0 0 0 -1 -1 0 0 0 0 0 0 0 0 0 0 0 0 0 0 0 0 0 0 0 0 0 0 0 0 0 0 0 0 0 0 0 0
0 0 0 0 0 0 0 0 0 0 0 0 0 0 0 0 0 0 0 0 0 0 0 0 0 0 0 0 0 0 0 0 0 0 0 0 0 0 0 0 0 0 0 0 0
0 0 0 0 0 0 0 0 0 0 0 0 0 0 0 0 0 0 0 0 0 0 0 0 0 0 0 0 0 0 0 0 0 0 0 0 0 0 0 0 0 0 0 0 0
0 0 0 0 0 0 0 0 0 0 0 0 0 0 0 0 0 0 0 0 0 0 0 0 0 0 0 0 0 0 0 0 0 0 0 0 0 0 0 0 0 0 0 0 0
0 0 0 0 0 0 0 0 0 0 0 0 0 0 0 0 0 0 0 -10 0 0 0 0 0 0 0 0 0 0 0 0 0 0 0 -7 0 0 0 0 0 0 0 0 0
0 0 0 0 0 0 0 0 0 -37 0 0 0 0 0 0 0 0 0 -2 -10 0 -4 0 0 0 0 0 0 0 0 0 0 0 0 0 0 0 0 0 0 0 0 0 0
0 0 0 0 0 0 0 0 0 -1 0 0 0 0 -18 0 0 -5 -7 -3 -4 -16 -1 0 0 0 0 0 0 0 0 0 0 0 0 0 0 0 0 0 0 0 0 0 0
0 0 0 0 0 0 0 -6 -1 -2 0 0 0 0 0 -12 -7 -12 -53 -20 -2 -1 -3 -1 0 0 0 0 0 0 0 0 0 0 0 0 0 0 0 -4 0 0 0 0 0
0 0 0 0 0 0 0 -3 0 0 -4 0 0 0 0 -2 -127 -93 0 -69 -1 -14 -10 0 -1 0 0 0 0 0 0 0 0 0 0 0 0 0 0 0 -12 0 0 -67 0
0 0 0 0 0 0 -2 -8 0 0 -1 -15 0 0 0 0 -5 -23 0 0 0 -10 0 -24 0 0 0 0 0 -1 0 0 0 -29 -2 -1 0 -22 -37 -47 -32 -3 -13 -61 -93
0 0 0 0 -3 -43 -8 0 0 -12 -3 -1 0 -9 0 0 -3 -14 0 -5 -28 0 -16 -14 -3 -7 0 0 0 0 0 0 0 0 0 -8 -12 -38 -71 -48 -49 -138 -18 -92 -129
0 0 0 0 0 0 -6 0 0 -11 0 -1 -1 -5 -15 0 -28 0 0 -26 -23 -39 -15 -62 -10 0 -1 0 0 0 0 0 0 0 0 0 -45 -144 -126 -44 -131 -180 -191 -132 -134
0 0 0 -30 0 0 0 0 0 0 0 0 0 -2 0 -91 -28 -10 -1 0 -71 -8 0 -41 -13 0 0 0 0 -6 0 0 -6 0 0 -19 -42 -10 -74 0 0 -9 -194 -110 0
0 0 -12 -7 0 0 0 0 -1 -1 0 0 0 0 -17 0 -7 -14 -24 -20 0 0 -1 -56 -2 0 0 0 0 0 0 0 0 0 -13 -21 -51 -169 -86 0 -30 0 0 0 -1
0 0 0 0 -32 -11 0 -4 0 -8 -1 -2 -1 -1 0 -1 -10 -11 -31 -18 -8 -26 -10 -2 0 0 0 0 0 0 0 -1 0 0 0 -39 -75 -111 -73 0 0 0 0 -57 -8
-2 -3 -1 0 0 0 0 0 0 0 0 -1 0 0 0 0 -2 0 -8 -6 -32 -10 0 -2 -1 -9 0 -89 -41 -24 -4 -2 -6 -24 0 -47 -21 -47 -93 -99 -189 0 -207 -225 0
0 0 -1 0 0 0 -2 0 0 -1 0 0 0 0 0 0 -6 -3 0 0 0 -20 -2 -3 -8 -1 0 0 -41 -65 -40 -10 -19 -20 -55 0 -69 0 0 -51 -94 -194 -203 0 0
0 -1 0 0 0 0 0 -1 0 0 0 0 0 0 0 0 0 0 0 0 -4 -11 0 -9 -8 -1 -48 0 0 -65 -73 -33 -50 -61 -53 -67 -80 -137 0 -14 -50 -68 0 0 0
Wind_Speed
32 33 32 31 30 32 28 24 22 27 32 31 31 33 32 31 33 34 21 11 6 12 21 24 25 23 22 24 25 27 37 47 45 41 37 36 33 29 34 37 27 24 27 16 6
33 32 32 33 31 30 28 26 25 25 28 33 34 35 37 37 32 22 19 15 19 13 12 19 22 20 23 23 25 26 36 41 35 37 39 41 38 33 29 28 23 23 23 13 11
31 32 33 34 34 34 31 28 27 28 30 29 29 32 35 38 27 13 23 6 16 13 9 12 16 18 23 26 24 28 40 35 36 40 42 42 41 36 29 25 22 27 26 14 14
28 27 29 31 33 35 35 35 33 33 32 33 32 31 31 24 22 16 19 23 2 10 11 11 16 17 20 27 29 34 35 38 42 40 40 39 36 37 31 28 27 24 23 26 19
27 26 26 26 28 32 31 31 30 30 31 32 31 30 27 19 15 14 35 31 11 7 14 14 14 15 20 21 28 36 37 37 39 44 43 40 40 38 40 32 31 31 29 28 25
30 31 30 29 29 29 31 31 32 32 32 31 31 27 22 20 24 18 11 18 9 7 13 15 15 16 23 22 24 30 37 41 39 36 41 39 40 37 36 34 36 35 34 31 28
32 31 31 30 30 32 36 36 34 32 32 32 29 24 21 21 23 32 34 15 10 9 12 16 16 15 17 24 24 33 40 41 42 39 39 39 45 41 38 36 38 38 41 38 36
37 37 34 35 35 35 40 42 40 38 37 34 27 21 31 31 28 27 33 24 15 14 13 14 16 22 25 24 31 30 36 44 40 35 36 31 54 38 33 38 40 38 39 42 44
41 40 40 39 38 37 38 41 39 33 30 26 22 20 37 28 21 21 19 18 13 15 15 19 17 18 25 25 29 31 33 35 40 36 31 31 49 39 32 36 38 36 34 36 35
42 41 39 38 39 40 41 44 37 29 23 20 20 25 25 22 20 20 16 17 16 16 16 20 22 22 25 23 26 27 31 35 37 32 39 40 42 33 30 33 37 34 30 31 32
42 41 40 39 40 41 42 37 30 31 22 26 27 28 29 24 35 17 15 18 23 20 23 20 23 26 26 29 28 32 32 30 32 36 30 36 38 31 27 27 31 31 26 25 27
42 43 43 43 42 42 37 29 27 30 51 29 31 34 30 33 37 34 16 21 23 25 22 25 31 28 29 31 32 35 38 41 35 33 27 36 28 25 23 25 25 26 28 24 22
41 42 43 43 43 35 28 27 25 35 42 48 35 36 30 26 30 29 20 22 25 27 27 29 29 30 33 34 33 34 38 37 36 35 35 20 23 22 21 27 28 27 26 18 18
44 44 44 46 38 33 38 28 34 35 41 44 26 23 18 18 33 27 30 23 30 31 29 35 34 29 33 39 33 37 31 36 35 33 28 20 28 28 25 27 31 22 17 19 20
46 45 44 38 39 35 29 32 32 28 46 25 22 16 13 7 22 16 19 24 28 31 29 36 28 37 34 35 33 36 31 30 33 32 27 31 27 33 26 35 18 13 12 15 15
48 48 46 42 25 27 24 22 27 26 36 23 27 31 17 9 17 10 15 19 20 29 33 39 28 31 41 30 32 33 32 33 32 29 36 29 26 29 26 22 8 10 8 10 11
51 48 44 33 32 21 18 19 24 26 23 26 27 35 35 26 31 18 29 25 25 27 34 38 39 36 38 37 32 32 31 29 27 29 32 26 34 30 19 12 3 5 5 2 8
52 50 37 24 17 10 15 17 23 20 17 37 45 42 41 36 26 22 27 34 26 27 30 38 41 35 29 30 27 32 28 26 27 25 26 27 30 25 19 13 6 15 6 3 2
54 43 33 23 14 6 11 18 17 21 23 44 46 46 40 34 25 24 27 32 30 29 29 33 47 29 35 31 32 27 31 21 17 18 21 23 27 18 18 14 14 10 3 4 4
47 39 27 37 38 4 5 13 18 15 38 38 40 37 43 39 28 28 24 23 31 49 48 39 34 42 40 39 31 26 25 25 29 24 23 25 20 13 12 8 11 10 5 5 4
38 38 25 40 27 25 20 24 33 28 31 29 33 35 38 38 37 28 26 26 25 32 46 37 32 32 28 34 26 31 27 28 29 25 26 25 23 14 15 11 11 13 9 7 3
36 38 28 30 32 24 24 32 30 35 29 24 22 26 32 35 34 30 30 26 22 26 40 40 25 34 34 29 35 31 26 31 26 29 29 25 22 20 21 16 15 14 8 8 22
38 28 25 29 30 28 31 30 29 29 26 24 24 24 21 25 25 24 27 24 22 22 29 30 34 25 29 34 39 37 39 28 33 25 29 24 20 13 12 12 22 18 10 5 7
30 32 29 21 34 32 32 29 30 28 26 29 26 24 27 26 26 23 23 22 20 20 26 29 28 32 30 26 27 34 39 29 27 30 31 28 12 11 10 8 11 10 6 5 13
26 28 28 27 29 29 30 29 32 29 27 27 23 27 27 26 28 30 26 21 22 21 25 29 30 26 31 23 27 34 37 43 19 30 21 19 6 8 10 12 5 5 3 1 1
29 29 24 20 15 28 28 31 29 31 28 24 24 26 26 20 21 25 20 23 30 19 25 28 21 28 32 30 27 31 31 35 13 14 13 13 15 12 9 11 12 10 4 3 1
24 20 20 18 7 25 26 27 27 28 22 26 27 26 24 20 23 25 27 25 24 24 29 31 29 32 32 28 28 36 33 22 18 21 16 20 17 9 11 12 11 7 3 3 2
Wind_Direction
350 337 340 342 344 334 348 355 357 342 299 288 281 284 276 270 268 260 234 246 244 218 286 287 279 272 268 269 264 263 260 255 256 260 266 267 275 276 279 272 266 265 267 282 276
347 347 343 340 343 346 347 348 348 346 339 325 323 314 300 289 268 249 246 232 217 220 273 275 275 269 262 263 264 255 257 258 264 266 265 263 270 282 285 272 266 267 271 271 263
357 350 343 339 335 334 339 341 341 337 332 333 332 327 321 309 325 325 325 267 210 207 232 273 269 269 260 260 255 257 257 264 264 262 263 264 267 277 281 278 269 264 265 266 272
3 2 355 349 342 336 333 331 332 330 328 325 325 328 327 332 324 329 329 323 193 213 235 245 264 255 258 258 257 260 262 262 260 261 265 266 273 272 272 271 285 286 285 278 283
359 358 357 355 349 342 339 337 335 333 329 326 324 324 326 316 295 295 270 297 313 223 213 216 230 241 253 256 259 258 262 263 262 260 261 266 269 273 266 273 280 283 283 278 286
352 349 350 349 346 343 339 336 331 327 325 323 321 323 317 295 313 314 295 297 299 227 219 222 257 246 276 258 255 266 262 261 263 261 261 266 269 271 268 272 273 275 276 276 279
349 347 345 345 343 339 334 331 328 325 322 319 317 315 299 260 308 297 287 278 269 240 227 227 231 250 253 271 264 266 263 262 259 262 262 266 265 263 269 272 270 271 268 271 273
343 342 341 338 336 334 329 324 322 319 316 315 314 309 297 300 295 292 280 280 277 261 247 242 235 258 266 272 269 264 264 261 261 261 261 263 259 268 270 268 267 269 270 267 266
339 338 337 336 335 333 331 326 322 318 317 317 315 307 305 311 302 285 257 269 254 262 255 254 245 247 264 265 266 261 263 264 262 262 264 260 262 268 271 268 267 268 269 268 269
339 338 338 337 334 332 330 326 322 320 319 317 309 309 311 307 309 298 257 254 249 252 248 251 256 254 254 251 245 259 260 265 266 263 262 262 263 267 269 268 268 269 267 267 269
343 341 339 337 334 331 332 334 331 324 314 303 301 293 302 312 304 284 263 250 258 246 238 239 248 236 245 252 261 263 262 263 269 263 264 262 263 262 266 271 271 271 269 268 269
344 342 339 337 334 330 328 328 325 324 309 293 286 279 275 288 287 284 244 239 243 236 240 247 240 252 257 256 256 257 258 257 263 266 268 265 262 254 268 270 269 272 272 266 273
345 343 340 338 336 336 337 321 323 321 306 301 291 283 277 267 262 262 241 234 245 242 235 238 260 252 252 253 252 254 255 257 261 263 270 268 256 262 275 277 275 271 273 265 270
343 341 339 338 337 337 326 329 327 330 313 314 316 307 287 261 281 243 254 236 246 245 243 249 251 252 247 249 248 252 255 256 258 266 271 251 261 264 279 277 269 274 265 275 284
341 338 336 337 327 329 331 332 327 328 311 332 334 345 332 232 306 251 209 235 243 245 241 247 245 247 245 249 248 252 254 252 255 265 262 258 269 269 281 280 255 254 267 285 285
340 337 335 333 328 318 322 329 333 318 308 322 310 316 323 286 281 320 236 227 244 248 248 250 255 250 245 249 249 251 251 255 257 261 258 259 267 264 281 295 230 217 251 292 275
340 337 333 326 325 334 335 334 322 310 330 321 309 302 293 292 262 284 273 235 232 236 243 246 245 250 245 246 246 241 245 250 250 249 255 260 262 265 291 309 337 231 221 261 308
341 337 336 330 330 329 350 333 314 326 315 298 286 289 280 281 289 283 272 250 234 244 248 241 242 241 240 238 242 239 242 241 248 250 259 260 263 273 268 285 284 289 207 213 62
343 346 343 351 342 322 334 323 329 326 320 290 285 276 272 276 288 287 269 248 245 237 245 240 240 247 241 244 241 239 236 233 252 265 264 264 264 284 269 268 275 282 220 159 115
348 351 357 358 347 8 314 318 321 298 280 292 273 275 261 262 280 270 275 260 252 228 212 237 243 235 234 233 240 242 239 236 242 250 261 261 267 265 272 255 291 314 145 174 141
356 353 360 354 360 333 336 336 302 265 277 260 268 271 261 259 273 260 263 260 267 240 224 239 241 238 242 232 230 236 236 239 244 250 254 257 261 268 269 272 259 291 305 264 197
360 356 6 8 5 349 339 318 281 297 282 268 227 234 246 259 262 253 253 261 263 243 223 228 240 235 233 240 233 245 241 239 243 243 253 258 267 266 265 265 263 276 316 303 294
358 3 19 14 5 356 315 286 302 296 297 302 284 274 283 266 257 259 253 259 249 257 239 227 230 231 234 234 233 237 235 238 239 252 247 260 261 274 275 269 251 271 290 288 304
6 3 8 22 354 322 302 303 308 303 292 304 297 300 293 267 259 262 256 264 259 262 238 230 232 229 231 219 232 234 233 238 235 242 247 258 261 262 273 280 277 267 278 269 303
15 10 12 5 358 297 310 309 311 303 301 297 290 300 290 253 236 236 253 263 254 245 232 223 223 226 227 231 232 230 231 224 225 241 252 243 252 262 270 269 286 288 260 46 83
13 10 15 13 284 295 305 309 305 305 296 288 282 287 291 258 249 235 260 247 247 249 226 227 227 220 217 226 235 231 231 227 222 228 242 257 262 278 314 288 264 267 272 194 133
18 18 19 20 349 299 305 301 297 300 279 286 292 283 273 271 262 256 242 243 248 238 224 220 225 217 219 232 232 223 229 234 235 236 250 256 259 291 297 285 269 259 279 252 328